Tracking 35280 objects as of 7-Sep-2026
HD Live streaming from Space Station
objects crossing your sky now

FALCON 9 R/B


FALCON 9 R/B is no longer on orbit


NORAD ID: 44187
Int'l Code: 2019-021B
Launch date: April 11, 2019
Source: United States (US)
Launch site: AIR FORCE EASTERN TEST RANGE (AFETR)
Decay date: 2021-06-15

Note: This is a ROCKET BODY
Your satellite tracking list
Your tracking list is empty




NASA's NSSDC Master Catalog

Two Line Element Set (TLE):
1 44187U 19021B   21164.53484190  .01206773 -15722-5  10000-3 0  9998
2 44187  19.7167 283.8704 4739264 338.1501  52.3790  6.36283491  6032
Source of the keplerian elements: AFSPC